CZ-3B DEB, 40845

Orbit data source: Space-Track

CZ-3B DEB, 40845 is space debris originally from a launch on Mon, 19 Dec 2011 UTC launched from the Xichang Space Center, China (XSC). Debris objects in space refer to the collection of defunct objects orbiting the Earth. Examples of debris include non-operational satellites, rocket bodies, and fragments generated from explosions, collisions, or faulty payload assembly.

Loading next visibility...
CZ-3B DEB details
Identifier
40845, 2011-077AA
Orbit
Molniya
Last TLE update2 days ago
Origin
Flag of CNCASC (CN / PRC)
ManufacturerCALT
MissionSpacecraft
Bus & MotorUnknown
MassUnknown
Launch date (UTC)
2011-12-19 (13 years ago)
Launch vehicleUnknown
Launch site
Xichang Space Center, China (XSC)
Object type
Payload
Rocket body
Debris
Shape & HBRUnknown
Radar Cross SectionMedium (>0.1 m² and <1 m²)

Expand to show TLE details & history

TLE from 2 days ago
0 CZ-3B DEB
1 40845U 11077AA  24346.64745531  .00002015  00000-0  44667-2 0  9998
2 40845  22.4094 320.8078 7439848 226.5815  41.2169  2.01717497 81048
Epoch: 2024-12-11T15:32Z
Definitive object data (Epoch: 2024-12-11T15:32:20.138Z)
Latitude-0.00022°
Longitude6.84689°
Altitude17,791.719 km
Speed4.233 km/s
True Right ascension21h 23m 04s
True Declination0° 00' 01"
Sunlit
Object was in daylight at TLE epoch
Visualization TLE readout
Latitude3.33941°
Longitude14.18076°
Altitude21,510.094 km
Speed3.677 km/s
Apparent Right ascension21h 14m 16s
Apparent Declination-5° 25' 14"
Sunlit
Object is in daylight
Visualization observer readout
Local Sidereal Time01:55:33
Azimuth252.946° W
Elevation11.332°
Doppler factor1
Orbital elements
Apogee altitude39,773.528 km
Perigee altitude396.881 km
Semi-major axis26,463.341 km
Eccentricity0.7439848
Inclination22.4094°
RAAN320.8078°
Arg. of periapsis226.5815°
True anomaly133.59039°
Mean anomaly41.2169°
Eccentric anomaly83.57648°
Mean motion0.50417 °/min
BSTAR0.0044667
Orbital period714.05 mins
Loading maneuver chart data...
Loading historical data...
Loading historical data...
Loading historical data...
Loading historical data...
Loading historical data...
Loading historical data...
Loading historical data...

CZ-3B DEB Visibility forecast

Observer location: undefined°, undefined

Span
Click to sort rows by Start time (UTC) header in descending order
Start Az.
Max El. time (UTC)
Max El. Az.
Max El.
End time (UTC)
End Az.
193 mins2024-12-14 03:22:50.611Z252.923° W2024-12-14 04:32:50.611Z259.767° W15.803°2024-12-14 06:35:50.611Z274.044° WNW
179 mins2024-12-14 21:07:50.611Z80.086° E2024-12-14 23:00:50.611Z83.813° E16.702°2024-12-15 00:06:50.611Z81.338° E
24 mins2024-12-15 02:58:50.611Z250.665° W2024-12-15 03:22:50.611Z252.306° W14.7°2024-12-15 03:22:50.611Z252.306° W
|